| time (UTC) | temp C | wind direction | speed KPH | gust KPH | rain 1hr cm | rain 24hr cm | rain mn cm | humidity % | barometer mb |
| 20260906234532 | 36 | 200 | 0.0 | 3.2 | 0.00 | 0.00 | 0.00 | 18 | 1036.8 |
| 20260906233033 | 36 | 209 | 0.0 | 6.4 | 0.00 | 0.00 | 0.00 | 17 | 1036.8 |
| 20260906231527 | 37 | 172 | 0.0 | 3.2 | 0.00 | 0.00 | 0.00 | 17 | 1036.8 |
| 20260906230011 | 36 | 167 | 0.0 | 1.6 | 0.00 | 0.00 | 0.00 | 17 | 1036.9 |
| 20260906224503 | 36 | 214 | 0.0 | 4.8 | 0.00 | 0.00 | 0.00 | 16 | 1036.8 |
| 20260906223004 | 37 | 212 | 1.6 | 8.0 | 0.00 | 0.00 | 0.00 | 16 | 1036.8 |
| 20260906221505 | 37 | 238 | 0.0 | 3.2 | 0.00 | 0.00 | 0.00 | 15 | 1037.1 |
| 20260906220010 | 37 | 249 | 0.0 | 3.2 | 0.00 | 0.00 | 0.00 | 15 | 1037.4 |
| 20260906214524 | 38 | 242 | 0.0 | 12.9 | 0.00 | 0.00 | 0.00 | 14 | 1037.6 |
| 20260906213003 | 38 | 269 | 0.0 | 6.4 | 0.00 | 0.00 | 0.00 | 14 | 1038.0 |
| 20260906211506 | 38 | 7 | 0.0 | 0.0 | 0.00 | 0.00 | 0.00 | 14 | 1038.2 |
| 20260906210007 | 37 | 3 | 0.0 | 0.0 | 0.00 | 0.00 | 0.00 | 14 | 1038.4 |
| 20260906204512 | 36 | 11 | 0.0 | 6.4 | 0.00 | 0.00 | 0.00 | 14 | 1038.5 |
| 20260906203020 | 37 | 138 | 0.0 | 3.2 | 0.00 | 0.00 | 0.00 | 14 | 1039.0 |
| 20260906201504 | 37 | 148 | 0.0 | 3.2 | 0.00 | 0.00 | 0.00 | 14 | 1039.1 |
| 20260906200004 | 37 | 53 | 0.0 | 3.2 | 0.00 | 0.00 | 0.00 | 14 | 1039.3 |
| 20260906194516 | 36 | 143 | 0.0 | 0.0 | 0.00 | 0.00 | 0.00 | 15 | 1039.4 |
| 20260906193016 | 37 | 122 | 0.0 | 0.0 | 0.00 | 0.00 | 0.00 | 14 | 1039.5 |
| 20260906191525 | 36 | 138 | 0.0 | 4.8 | 0.00 | 0.00 | 0.00 | 15 | 1039.7 |
| 20260906190005 | 36 | 188 | 0.0 | 0.0 | 0.00 | 0.00 | 0.00 | 16 | 1040.0 |
| 20260906184517 | 36 | 87 | 0.0 | 0.0 | 0.00 | 0.00 | 0.00 | 16 | 1040.3 |
| 20260906183018 | 35 | 139 | 0.0 | 0.0 | 0.00 | 0.00 | 0.00 | 16 | 1040.6 |
| 20260906181522 | 35 | 137 | 0.0 | 3.2 | 0.00 | 0.00 | 0.00 | 16 | 1040.7 |
| 20260906180024 | 34 | 130 | 0.0 | 0.0 | 0.00 | 0.00 | 0.00 | 20 | 1041.2 |
| 20260906174504 | 33 | 79 | 0.0 | 0.0 | 0.00 | 0.00 | 0.00 | 22 | 1041.2 |
| 20260906173012 | 32 | 53 | 0.0 | 3.2 | 0.00 | 0.00 | 0.00 | 23 | 1041.2 |
| 20260906171517 | 31 | 4 | 0.0 | 6.4 | 0.00 | 0.00 | 0.00 | 24 | 1041.6 |
| 20260906170029 | 31 | 51 | 0.0 | 3.2 | 0.00 | 0.00 | 0.00 | 25 | 1041.6 |
| 20260906164530 | 30 | 70 | 0.0 | 0.0 | 0.00 | 0.00 | 0.00 | 26 | 1041.9 |
| 20260906163010 | 29 | 70 | 0.0 | 0.0 | 0.00 | 0.00 | 0.00 | 27 | 1041.9 |
| 20260906161516 | 28 | 66 | 0.0 | 3.2 | 0.00 | 0.00 | 0.00 | 29 | 1041.9 |
| 20260906160021 | 27 | 53 | 0.0 | 0.0 | 0.00 | 0.00 | 0.00 | 30 | 1041.8 |
| 20260906154528 | 27 | 53 | 0.0 | 0.0 | 0.00 | 0.00 | 0.00 | 30 | 1042.1 |
| 20260906153008 | 26 | 53 | 0.0 | 0.0 | 0.00 | 0.00 | 0.00 | 31 | 1041.9 |
| 20260906151514 | 25 | 53 | 0.0 | 1.6 | 0.00 | 0.00 | 0.00 | 31 | 1041.8 |
| 20260906150031 | 25 | 350 | 0.0 | 0.0 | 0.00 | 0.00 | 0.00 | 31 | 1041.9 |
| 20260906144524 | 24 | 350 | 0.0 | 0.0 | 0.00 | 0.00 | 0.00 | 31 | 1041.8 |
| 20260906143029 | 23 | 350 | 0.0 | 0.0 | 0.00 | 0.00 | 0.00 | 32 | 1041.7 |
| 20260906141511 | 23 | 350 | 0.0 | 0.0 | 0.00 | 0.00 | 0.00 | 34 | 1041.5 |
| 20260906140035 | 23 | 350 | 0.0 | 0.0 | 0.00 | 0.00 | 0.00 | 31 | 1041.4 |
| 20260906134520 | 23 | 349 | 0.0 | 0.0 | 0.00 | 0.00 | 0.00 | 29 | 1041.2 |
| 20260906133030 | 22 | 355 | 0.0 | 8.0 | 0.00 | 0.00 | 0.00 | 29 | 1040.8 |
| 20260906131536 | 21 | 354 | 0.0 | 3.2 | 0.00 | 0.00 | 0.00 | 30 | 1040.8 |
| 20260906130013 | 21 | 355 | 0.0 | 0.0 | 0.00 | 0.00 | 0.00 | 31 | 1040.8 |
| 20260906124520 | 21 | 353 | 0.0 | 0.0 | 0.00 | 0.00 | 0.00 | 31 | 1041.0 |
| 20260906123026 | 20 | 347 | 0.0 | 0.0 | 0.00 | 0.00 | 0.00 | 33 | 1040.7 |
| 20260906121528 | 20 | 347 | 0.0 | 0.0 | 0.00 | 0.00 | 0.00 | 36 | 1040.8 |
| 20260906120029 | 21 | 347 | 0.0 | 0.0 | 0.00 | 0.00 | 0.00 | 35 | 1040.6 |
| 20260906114523 | 21 | 347 | 0.0 | 0.0 | 0.00 | 0.00 | 0.00 | 35 | 1040.6 |
| 20260906113034 | 22 | 347 | 0.0 | 0.0 | 0.00 | 0.00 | 0.00 | 34 | 1040.7 |
| 20260906111528 | 22 | 347 | 0.0 | 0.0 | 0.00 | 0.00 | 0.00 | 34 | 1040.6 |
| 20260906110030 | 22 | 347 | 0.0 | 0.0 | 0.00 | 0.00 | 0.00 | 32 | 1040.5 |
| 20260906104514 | 23 | 347 | 0.0 | 0.0 | 0.00 | 0.00 | 0.00 | 32 | 1040.6 |
| 20260906103018 | 23 | 347 | 0.0 | 0.0 | 0.00 | 0.00 | 0.00 | 32 | 1040.6 |
| 20260906101505 | 23 | 346 | 0.0 | 0.0 | 0.00 | 0.00 | 0.00 | 32 | 1040.3 |
| 20260906100006 | 23 | 309 | 0.0 | 3.2 | 0.00 | 0.00 | 0.00 | 32 | 1040.4 |
| 20260906094512 | 23 | 296 | 0.0 | 3.2 | 0.00 | 0.00 | 0.00 | 32 | 1040.2 |
| 20260906093040 | 23 | 2 | 0.0 | 3.2 | 0.00 | 0.00 | 0.00 | 32 | 1040.2 |
| 20260906091503 | 23 | 2 | 0.0 | 4.8 | 0.00 | 0.00 | 0.00 | 31 | 1040.1 |
| 20260906090012 | 24 | 1 | 0.0 | 0.0 | 0.00 | 0.00 | 0.00 | 30 | 1040.0 |
| 20260906084511 | 25 | 337 | 0.0 | 0.0 | 0.00 | 0.00 | 0.00 | 30 | 1039.9 |
| 20260906083030 | 24 | 337 | 0.0 | 0.0 | 0.00 | 0.00 | 0.00 | 30 | 1040.2 |
| 20260906081520 | 24 | 334 | 0.0 | 3.2 | 0.00 | 0.00 | 0.00 | 30 | 1040.3 |
| 20260906080004 | 23 | 320 | 0.0 | 3.2 | 0.00 | 0.00 | 0.00 | 32 | 1040.3 |
| 20260906074528 | 23 | 238 | 0.0 | 0.0 | 0.00 | 0.00 | 0.00 | 32 | 1040.4 |
| 20260906073014 | 23 | 238 | 0.0 | 0.0 | 0.00 | 0.00 | 0.00 | 33 | 1040.9 |
| 20260906071516 | 23 | 235 | 0.0 | 0.0 | 0.00 | 0.00 | 0.00 | 1040.7 | |
| 20260906070027 | 24 | 235 | 0.0 | 0.0 | 0.00 | 0.00 | 0.00 | 31 | 1040.6 |
| 20260906064505 | 25 | 235 | 0.0 | 0.0 | 0.00 | 0.00 | 0.00 | 30 | 1040.6 |
| 20260906063010 | 25 | 235 | 0.0 | 0.0 | 0.00 | 0.00 | 0.00 | 30 | 1040.6 |
| 20260906061520 | 25 | 235 | 0.0 | 0.0 | 0.00 | 0.00 | 0.00 | 30 | 1040.5 |
| 20260906060026 | 25 | 236 | 0.0 | 0.0 | 0.00 | 0.00 | 0.00 | 30 | 1040.6 |
| 20260906054528 | 25 | 236 | 0.0 | 0.0 | 0.00 | 0.00 | 0.00 | 29 | 1040.3 |
| 20260906053007 | 26 | 236 | 0.0 | 3.2 | 0.00 | 0.00 | 0.00 | 28 | 1040.1 |
| 20260906051514 | 26 | 3 | 0.0 | 9.7 | 0.00 | 0.00 | 0.00 | 27 | 1040.0 |
| 20260906050022 | 26 | 9 | 1.6 | 14.5 | 0.00 | 0.00 | 0.00 | 27 | 1039.8 |
| 20260906044526 | 26 | 1 | 1.6 | 11.3 | 0.00 | 0.00 | 0.00 | 28 | 1039.7 |
| 20260906043031 | 26 | 10 | 0.0 | 3.2 | 0.00 | 0.00 | 0.00 | 28 | 1039.9 |
| 20260906041515 | 27 | 8 | 0.0 | 3.2 | 0.00 | 0.00 | 0.00 | 27 | 1039.8 |
| 20260906040021 | 27 | 8 | 0.0 | 3.2 | 0.00 | 0.00 | 0.00 | 27 | 1039.9 |
| 20260906034525 | 27 | 8 | 0.0 | 3.2 | 0.00 | 0.00 | 0.00 | 27 | 1039.8 |
| 20260906033030 | 27 | 5 | 0.0 | 6.4 | 0.00 | 0.00 | 0.00 | 27 | 1039.9 |
| 20260906031509 | 27 | 356 | 0.0 | 6.4 | 0.00 | 0.00 | 0.00 | 27 | 1039.5 |
| 20260906030020 | 28 | 13 | 0.0 | 8.0 | 0.00 | 0.00 | 0.00 | 27 | 1039.4 |
| 20260906024522 | 28 | 4 | 0.0 | 6.4 | 0.00 | 0.00 | 0.00 | 26 | 1039.1 |
| 20260906023028 | 28 | 18 | 0.0 | 6.4 | 0.00 | 0.00 | 0.00 | 27 | 1039.1 |
| 20260906021530 | 28 | 340 | 0.0 | 0.0 | 0.00 | 0.00 | 0.00 | 29 | 1038.9 |
| 20260906020025 | 29 | 340 | 0.0 | 0.0 | 0.00 | 0.00 | 0.00 | 28 | 1038.9 |
| 20260906014535 | 30 | 340 | 0.0 | 0.0 | 0.00 | 0.00 | 0.00 | 28 | 1038.8 |
| 20260906013028 | 30 | 340 | 0.0 | 0.0 | 0.00 | 0.00 | 0.00 | 27 | 1038.7 |
| 20260906011533 | 31 | 340 | 0.0 | 0.0 | 0.00 | 0.00 | 0.00 | 26 | 1038.7 |
| 20260906010055 | 31 | 340 | 0.0 | 0.0 | 0.00 | 0.00 | 0.00 | 25 | 1038.6 |
| 20260906004515 | 32 | 339 | 0.0 | 0.0 | 0.00 | 0.00 | 0.00 | 24 | 1038.7 |
| 20260906003020 | 32 | 316 | 0.0 | 4.8 | 0.00 | 0.00 | 0.00 | 24 | 1038.6 |
| 20260906001541 | 33 | 288 | 0.0 | 0.0 | 0.00 | 0.00 | 0.00 | 23 | 1038.7 |
| 20260906000030 | 33 | 288 | 0.0 | 8.0 | 0.00 | 0.00 | 0.00 | 23 | 1038.5 |